Regional Weather Roundup
Issued by NWS

Home | Current Version | Previous Version | Graphics & Text | Print | Product List | Glossary On
Versions: 1 2 3 4 5 6 7 8 9 10 11 12 13 14 15 16 17 18 19 20 21 22 23 24 25 26 27 28 29 30 31 32 33 34 35 36 37 38 39 40 41 42 43 44 45 46 47 48 49 50
000
ASUS43 KLSX 012259
RWRMO

WEATHER SUMMARY FOR MISSOURI
NATIONAL WEATHER SERVICE SPRINGFIELD MO
600 PM CDT SAT AUG 01 2015

NOTE: "FAIR" INDICATES FEW OR NO CLOUDS BELOW 12,000 FEET WITH NO
       SIGNIFICANT WEATHER AND/OR OBSTRUCTIONS TO VISIBILITY.
       CURRENT SKY AND/OR WEATHER CONDITIONS ARE NOT AVAILABLE FOR
       CHILLICOTHE AND FARMINGTON.

MOZ001>031-035>038-043-044-053-054-020000-
...NORTHERN AND WESTERN MISSOURI...

CITY           SKY/WX    TMP DP  RH WIND       PRES   REMARKS
KANSAS CTY INT PTSUNNY   88  72  58 SW6       29.96F HX  94
KANSAS C DTWN  SUNNY     91  67  44 SW5       29.95S HX  94
LEE`S SUMMIT   MOSUNNY   85  69  58 SE8       29.99S
ST JOSEPH      PTSUNNY   88  76  67 SW3       29.94F HX  99
CHILLICOTHE      N/A     77  68  73 SE6       29.96S
KIRKSVILLE     MOSUNNY   87  71  58 S3        29.97F HX  93

$$
MOZ066>068-077>081-088>096-101>105-020000-
...SOUTHWEST MISSOURI...

CITY           SKY/WX    TMP DP  RH WIND       PRES   REMARKS
SPRINGFIELD    SUNNY     89  60  37 SW6       30.00F
JOPLIN         SUNNY     91  63  39 S8        29.98F HX  92

$$
MOZ032>034-039>042-045>050-055>058-069>072-020000-
...CENTRAL MISSOURI...

CITY           SKY/WX    TMP DP  RH WIND       PRES   REMARKS
COLUMBIA       PTSUNNY   77  68  73 W6        30.00F
JEFFERSON CITY PTSUNNY   82  65  56 NW6       29.98F
ROLLA          PTSUNNY   83  69  62 W6        30.00R
SEDALIA        MOSUNNY   79  68  69 N14       30.05R
WARRENSBURG    MOSUNNY   79  64  61 NE17G25   30.01R
OSAGE BEACH    PTSUNNY   79  63  57 S3        30.00F

$$
MOZ051-052-059>065-020000-
...EAST CENTRAL MISSOURI...

CITY           SKY/WX    TMP DP  RH WIND       PRES   REMARKS
ST LOUIS INTL  PTSUNNY   90  65  43 W3        29.98F HX  92
SPIRIT OF STL  PTSUNNY   86  74  67 CALM      29.96F HX  94
ST CHARLES     SUNNY     88  67  49 SW3       29.97S HX  91

$$
MOZ072>076-082>087-097>100-106>115-020000-
...SOUTH CENTRAL AND SOUTHEAST MISSOURI...

CITY           SKY/WX    TMP DP  RH WIND       PRES   REMARKS
CAPE GIRARDEAU CLOUDY    87  70  56 NE6       29.96F HX  92
FARMINGTON     CLOUDY    86  68  54 W3        30.03F
POPLAR BLUFF   PTSUNNY   93  67  42 CALM      29.94F HX  96
WEST PLAINS    SUNNY     89  63  41 W6        30.02F HX  90

$$


USA.gov is the U.S. government's official web portal to all federal, state and local government web resources and services.